Location: Saint-Palais-sur-Mer
(45.6429°N, 1.0859°W)
Time: 23:58:31
(UTC+01:00)

Tiros 1 despin weight - Pass Details

Date: 17 February 2026
Orbit: 556 x 593 km, 48.2° (Epoch: 13 March)

Event Time Altitude Azimuth Distance (km) Brightness Sun altitude
Rises 16:22:56 0° 229° (SW) 2,734 ? 19.1°
Reaches altitude 10° 16:25:14 10° 223° (SW) 1,837 ? 18.8°
Maximum altitude 16:29:15 46° 150° (SSE) 749 ? 18.3°
Drops below altitude 10° 16:33:16 10° 77° (ENE) 1,837 ? 17.7°
Sets 16:35:35 0° 71° (ENE) 2,735 ? 17.4°
